Regional Weather Roundup
Issued by NWS

Home | Current Version | Previous Version | Graphics & Text | Print | Product List | Glossary On
Versions: 1 2 3 4 5 6 7 8 9 10 11 12 13 14 15 16 17 18 19 20 21 22 23 24 25 26 27 28 29 30 31 32 33 34 35 36 37 38 39 40 41 42 43 44 45 46 47 48 49 50
000
ASUS43 KMKX 181900
RWRWI

WISCONSIN REGIONAL WEATHER ROUNDUP
NATIONAL WEATHER SERVICE MILWAUKEE/SULLIVAN WI
200 PM CDT SAT APR 18 2015

NOTE: "FAIR" INDICATES FEW OR NO CLOUDS BELOW 12,000 FEET WITH NO
SIGNIFICANT WEATHER AND/OR OBSTRUCTIONS TO VISIBILITY.

WIZ001-002-006>008-014>016-023>028-182000-
NORTHWEST WISCONSIN

CITY           SKY/WX    TMP DP  RH WIND       PRES   REMARKS
SUPERIOR ARPT  MOSUNNY   43  34  71 E18G30    30.19F
ASHLAND        MOSUNNY   48  35  60 NE16      30.19F
HAYWARD        MOSUNNY   64  23  21 SE12      30.10F
SIREN          SUNNY     65  29  26 NE8       30.08F
CUMBERLAND     SUNNY     63  32  31 E12       30.08F
RICE LAKE      SUNNY     65  30  26 SE8       30.09F
CHETEK         SUNNY     66  33  28 E6G18     30.07F
LADYSMITH      SUNNY     65  30  26 SE5       30.12F
EAU CLAIRE     NOT AVBL
MENOMONIE      MOSUNNY   67  29  24 E12       30.05F HAZE
NEW RICHMOND   MOSUNNY   67  28  23 E13       30.04F
OSCEOLA        MOSUNNY   68  32  26 E13       30.07F
$$

WIZ003>005-009-010-017-018-182000-
NORTH CENTRAL WISCONSIN

CITY           SKY/WX    TMP DP  RH WIND       PRES   REMARKS
MANITOWISH WTR SUNNY     58  23  25 E8G16     30.15F
ARBOR VITAE    SUNNY     60  21  22 E8G18     30.15F
WOODRUFF       SUNNY     60  21  22 E8G18     30.15F
RHINELANDER    SUNNY     61  24  24 E10G23    30.15F
EAGLE RIVER    SUNNY     59  19  21 E8        30.15F
LAND O LAKES   SUNNY     59  19  21 E10G16    30.17F
PHILLIPS       SUNNY     61  26  26 E12       30.12F
TOMAHAWK       SUNNY     63  23  22 E9        30.14F
MEDFORD        SUNNY     61  31  32 E12G17    30.12F
MERRILL        MOSUNNY   63  27  25 SE15      30.14F
$$

WIZ029-030-035-036-043>047-182000-
CENTRAL WISCONSIN

CITY           SKY/WX    TMP DP  RH WIND       PRES   REMARKS
WAUSAU         MOSUNNY   61  27  27 SE17      30.13F
MOSINEE        SUNNY     61  32  33 E14       30.15F
MARSHFIELD     MOSUNNY   62  31  31 E15       30.11F
STEVENS POINT  MOSUNNY   60  29  31 E13G22    30.14F
WAUPACA        MOSUNNY   61  31  31 E14       30.17S
WAUTOMA        NOT AVBL
WISC RAPIDS    MOSUNNY   63  23  21 E17G24    30.14S
CAMP DOUGLAS   NOT AVBL
$$

WIZ011>013-019>022-031-037>040-048>050-182000-
NORTHEAST WISCONSIN

CITY           SKY/WX    TMP DP  RH WIND       PRES   REMARKS
ANTIGO         MOSUNNY   59  29  31 SE15G28   30.17S
SHAWANO        MOSUNNY   58  30  33 NE10      30.19S
OCONTO         MOSUNNY   54  33  43 NE8G17    30.20S
STURGEON BAY   MOSUNNY   52  28  40 NE13      30.22F
GREEN BAY      MOSUNNY   55  38  52 NE18      30.18F
MANITOWOC      NOT AVBL
APPLETON       MOSUNNY   57  32  38 NE14G21   30.17F
CLINTONVILLE   MOSUNNY   59  28  31 E13G22    30.17F
OSHKOSH        SUNNY     58  34  40 NE13G21   30.15F
$$

WIZ032>034-041-042-053>061-182000-
SOUTHWEST WISCONSIN

CITY           SKY/WX    TMP DP  RH WIND       PRES   REMARKS
LA CROSSE      SUNNY     74  34  23 SE17      30.02F
SPARTA         MOSUNNY   70  31  23 SE16G22   30.07F
VIROQUA        SUNNY     70  34  26 E15       30.05F
BOSCOBEL       PTSUNNY   74  37  26 E12G21    30.03F
PRAIRIE DU CHI MOSUNNY   73  37  26 E17       30.00F
PLATTEVILLE    PTSUNNY   70  39  31 E20G25    30.03F
$$

WIZ056-057-062-063-064-067-068-182000-
SOUTH CENTRAL WISCONSIN

CITY           SKY/WX    TMP DP  RH WIND       PRES   REMARKS
REEDSBURG      SUNNY     65  38  37 E14G20    30.09S
BARABOO/DELLS  SUNNY     64  35  33 E15G23    30.09F
LONE ROCK      NOT AVBL
MINERAL POINT  MOSUNNY   70  32  24 E13G22    30.06S
MADISON        MOSUNNY   67  35  30 E17G23    30.09F
MIDDLETON      SUNNY     67  33  27 E14       30.09F
WATERTOWN      SUNNY     64  33  32 E14       30.10F
MONROE         SUNNY     68  36  30 NE17G25   30.06S
JANESVILLE     SUNNY     72  28  20 E17       30.06F
$$

WIZ051-052-058>065-066-070>072-182000-
SOUTHEAST WISCONSIN

CITY           SKY/WX    TMP DP  RH WIND       PRES   REMARKS
MILWAUKEE      PTSUNNY   47  36  65 N22G29    30.14F
WAUKESHA       MOSUNNY   59  34  38 NE12G23   30.12F
MILWAUKEE/TIMM SUNNY     54  34  47 NE13G23   30.14S
RACINE         SUNNY     48  36  63 N21G30    30.14S
BURLINGTON     SUNNY     61  33  35 NE10      30.10F
KENOSHA        SUNNY     56  38  50 NE14      30.11F
FOND DU LAC    SUNNY     62  30  29 E14G23    30.14F
SHEBOYGAN      SUNNY     55  37  50 NE17      30.16S
WEST BEND      SUNNY     59  30  33 NE13      30.13S
JUNEAU         SUNNY     61  31  32 NE15      30.12F
$$

LSZ147-162-182000-
LAKE SUPERIOR

STATION/POSITION TIME  TEMP    WIND        PRES    WAVE
                       AIR SEA DIR/SP/G            HT/PER
                 (UTC) (F)     (DEG/KT/KT) (MB)    (FT/S)
DEVILS ISLAND    1800   36      50/ 19/ 21 1024.7F
PORT WING        1800   39      40/ 23/ 26 1022.7
SAXON HARBOR     1840   39      30/ 15/ 18 1022.0F
$$

LMZ867-665-643>646-182000-
LAKE MICHIGAN

STATION/POSITION TIME  TEMP    WIND        PRES    WAVE
                       AIR SEA DIR/SP/G            HT/PER
                 (UTC) (F)     (DEG/KT/KT) (MB)    (FT/S)
CHAMBERS ISLAND  1800   45      20/ 12/ 14 1023.4F
NORTHPORT PIER   1800   44     320/  2/  3 1023.4F
SISTER BAY       1847   58      20/  9/ 17   N/A
KEWAUNEE LAKESHO 1800   45      30/ 15/ 20 1021.8F
SHEBOYGAN LAKESH 1800   40      10/ 22/ 24 1022.1F
PORT WASHINGTON  1800   46      50/ 16/ 20 1021.3F
MILWAUKEE LAKESH 1800   42      10/ 18/ 23   N/A
KENOSHA   LAKESH 1800   43      20/ 19/ 22 1020.0S
$$

TC  - TEMPERATURE IN CELSIUS
VSB - VISIBILITY IN STATUTE MILES
WCI - WIND CHILL INDEX
HX  - HEAT INDEX




USA.gov is the U.S. government's official web portal to all federal, state and local government web resources and services.